Vorticity
5 27 28 16 18 19 14 17 10 -11 20 10 15 10 18 17 3 11 52 3 12 -2 1 -2 -1 1 2 5 4 4 4 5 2 7 5 3 4 5 4 5 1 5 7 5 3 3 2 4 3
15 32 17 15 16 10 13 7 9 15 3 2 12 -4 45 -24 -58 -71 50 0 12 11 4 2 -1 8 6 2 3 5 3 1 6 10 9 3 5 9 6 8 -0 2 9 7 2 2 3 3 5
38 16 16 20 13 11 -5 17 5 11 7 14 18 23 15 23 21 -10 -33 9 8 6 5 5 7 -0 3 2 5 5 2 11 5 7 4 -0 5 8 6 11 -1 5 9 7 4 3 2 5 4
24 11 18 21 5 -2 22 -12 7 11 6 8 1 20 -4 7 -7 -9 48 2 -2 14 5 4 13 11 4 7 1 2 3 2 8 7 1 5 8 10 6 4 8 7 8 8 -0 3 5 3 5
12 12 19 3 10 12 10 -2 5 19 11 -20 8 18 -8 24 3 14 11 4 16 -9 9 6 -6 -6 4 6 5 3 2 6 5 4 4 4 9 8 9 3 6 15 9 4 3 5 5 3 4
10 10 10 0 20 2 4 7 9 4 12 8 15 -9 23 -0 -1 32 4 20 9 54 -0 13 21 11 -9 21 6 -1 2 6 4 7 6 10 -1 8 5 10 2 13 4 -1 6 5 3 7 1
10 14 5 13 6 7 8 32 3 4 -9 0 6 13 15 4 -3 24 17 3 -4 16 -2 69 15 18 1 12 13 13 6 5 8 1 6 3 8 4 9 1 11 2 10 10 3 5 7 -1 1
12 14 7 8 8 5 -18 19 7 -0 -9 23 -15 7 8 17 4 9 1 4 11 2 50 19 14 18 -13 2 19 2 10 12 -0 -4 11 -1 -1 5 6 10 19 39 5 3 8 3 2 1 3
15 17 4 11 11 20 10 19 1 5 15 5 4 1 4 13 11 6 12 13 6 0 -0 2 -1 -5 16 11 30 10 -37 20 16 -7 -11 -5 0 5 6 28 12 15 8 12 1 3 -1 2 8
20 6 7 4 -9 5 -1 9 6 10 17 8 9 9 8 0 4 9 9 6 -0 10 3 0 8 -4 -4 53 2 -49 21 -11 18 17 -13 -21 30 5 9 12 13 3 10 -4 8 -5 3 4 4
15 11 -9 9 18 10 18 3 4 10 -11 12 -0 -8 0 0 2 4 7 9 8 10 11 6 10 -13 28 5 2 -8 22 18 33 50 -3 61 -6 9 33 23 14 -2 8 4 -5 4 7 9 15
6 6 8 19 8 -0 3 7 3 1 3 7 12 13 11 7 11 2 9 4 7 4 1 4 -1 5 -14 -12 1 12 -6 28 7 -17 23 23 16 26 11 7 5 5 -3 4 5 0 11 17 5
2 6 9 10 19 19 -2 -0 0 0 3 7 12 8 15 12 12 10 11 9 6 6 5 -4 15 23 1 1 11 -0 16 -3 7 19 35 -1 31 23 6 -4 1 3 5 0 -3 17 10 3 3
6 5 8 7 11 11 17 9 0 5 4 3 8 9 17 15 12 14 6 8 12 9 14 7 21 15 22 57 -3 1 18 -9 4 31 18 40 18 2 4 0 6 2 -2 12 15 6 2 3 2
6 8 7 29 -3 12 18 19 4 7 6 6 5 13 18 20 16 12 14 8 12 16 -15 45 25 -2 21 10 12 32 -24 -3 48 38 49 6 -0 -4 2 3 4 4 2 14 5 2 3 1 2
5 3 17 -6 13 10 13 -5 15 13 10 8 15 14 10 17 18 15 16 24 -4 4 5 -4 9 13 5 -3 21 29 40 42 17 1 -2 -1 -2 2 5 4 7 14 6 4 2 3 2 2 2
1 24 4 11 -9 -8 10 9 -10 16 10 11 15 15 10 14 30 21 13 15 3 -5 12 23 15 14 29 19 22 11 7 4 2 2 3 7 5 2 4 9 10 4 3 2 3 2 2 2 2
5 0 5 22 0 33 15 6 -2 8 21 12 15 8 13 8 6 7 52 44 10 25 16 25 21 11 7 9 1 -2 -2 -0 2 5 0 1 3 5 14 6 5 3 2 3 2 2 2 2 4
23 6 5 6 15 25 3 6 12 7 1 12 16 50 -4 11 -3 9 1 -2 -1 4 4 3 5 2 1 -0 1 1 6 5 4 3 4 2 4 3 12 4 3 2 2 2 2 2 3 4 4
22 7 2 13 -2 6 8 12 14 45 20 4 4 3 -1 10 11 7 3 3 3 0 1 4 2 4 2 3 5 4 3 1 3 4 5 7 7 9 9 0 2 2 1 1 2 4 -1 5 10
11 10 4 18 9 -2 17 5 -24 8 5 6 5 9 9 10 8 8 7 5 4 4 3 3 4 4 4 6 5 5 3 3 3 4 9 12 11 9 5 -2 1 1 1 0 4 3 7 10 9
2 8 20 2 5 12 17 -1 16 -12 8 9 6 6 8 8 8 8 6 5 6 7 6 4 5 5 4 5 3 5 6 5 6 7 8 11 7 5 5 1 0 3 2 -2 -2 4 12 -1 4
-1 5 8 3 1 8 -6 10 -1 5 5 -3 15 2 6 2 1 3 4 5 5 6 5 5 6 5 4 4 5 5 5 7 7 9 7 8 6 2 4 4 15 -3 9 -3 -0 -0 10 -3 7
18 7 4 14 10 10 3 5 7 17 10 -5 -9 7 4 6 -1 -3 -2 -1 7 6 4 5 6 8 8 7 8 10 11 8 7 9 8 11 3 4 -0 -9 20 -1 1 25 -9 1 4 11 7
12 10 6 5 1 17 -1 14 4 -7 17 20 6 -2 1 11 13 12 14 12 12 14 12 13 12 7 10 14 11 11 8 14 6 27 8 10 6 1 19 17 7 5 9 2 3 3 -2 3 8
-5 4 -3 13 14 13 3 2 18 11 16 6 4 6 -0 4 2 5 4 11 11 2 5 7 9 10 9 9 8 7 5 4 4 -20 5 9 9 21 10 1 6 6 14 -1 10 -0 -4 6 11
9 4 6 3 -2 -9 -12 -1 15 6 5 34 14 12 7 5 1 7 6 7 7 10 8 7 11 9 9 7 6 6 3 5 3 2 1 7 8 1 4 5 4 17 -2 -1 -8 20 15 3 1
-1 5 11 6 4 8 12 11 3 8 -1 3 10 19 13 12 17 9 5 4 6 7 6 6 7 7 7 5 5 4 4 2 1 2 4 11 4 8 8 36 23 16 -1 6 -3 11 4 -31 -4
15 11 3 10 9 7 4 5 8 -1 10 -3 11 11 9 17 6 2 5 6 3 3 5 6 5 5 6 6 6 5 4 1 -1 -1 4 3 4 6 20 -7 19 -3 -6 14 15 30 4 -12 3
3 17 11 7 2 11 5 -7 -18 -2 6 9 12 16 11 8 11 8 5 6 6 6 5 4 3 3 4 3 3 4 1 1 5 3 5 4 7 10 12 15 -16 28 -22 49 4 -12 -27 -6 17
Height
5796 5789 5784 5782 5785 5783 5786 5790 5786 5785 5784 5776 5781 5785 5789 5791 5782 5785 5779 5788 5797 5806 5808 5812 5816 5818 5820 5821 5823 5825 5826 5827 5827 5828 5829 5829 5830 5830 5832 5831 5832 5831 5831 5830 5831 5830 5830 5831 5831
5790 5783 5780 5780 5782 5788 5791 5784 5781 5782 5779 5767 5774 5777 5779 5781 5749 5773 5767 5787 5794 5801 5805 5808 5810 5813 5815 5816 5818 5820 5820 5822 5823 5824 5825 5826 5826 5827 5828 5828 5828 5829 5829 5828 5829 5828 5828 5829 5830
5784 5780 5779 5778 5784 5787 5786 5779 5778 5777 5772 5770 5772 5773 5773 5775 5775 5776 5786 5788 5791 5795 5798 5803 5804 5807 5808 5810 5813 5815 5817 5817 5819 5821 5821 5822 5822 5823 5824 5825 5825 5826 5826 5826 5825 5826 5827 5828 5829
5780 5778 5777 5777 5783 5782 5780 5777 5774 5774 5757 5766 5763 5742 5768 5767 5771 5775 5779 5788 5789 5790 5791 5795 5797 5799 5801 5804 5808 5811 5813 5814 5814 5816 5818 5817 5819 5819 5819 5820 5822 5822 5823 5823 5822 5823 5825 5826 5827
5778 5777 5778 5782 5782 5780 5776 5774 5771 5769 5765 5756 5763 5761 5764 5768 5769 5771 5774 5777 5777 5783 5787 5789 5792 5795 5797 5800 5803 5805 5807 5808 5809 5811 5812 5812 5813 5813 5814 5815 5816 5817 5818 5818 5820 5821 5823 5823 5824
5777 5777 5780 5782 5779 5777 5772 5769 5769 5769 5767 5766 5764 5749 5754 5760 5763 5765 5769 5774 5774 5760 5776 5776 5783 5785 5789 5793 5796 5799 5799 5801 5803 5805 5807 5807 5808 5809 5809 5810 5811 5812 5813 5814 5817 5818 5820 5821 5822
5776 5777 5780 5780 5780 5778 5770 5768 5766 5767 5766 5769 5763 5763 5765 5765 5765 5762 5767 5772 5773 5765 5767 5758 5769 5776 5780 5783 5786 5791 5794 5796 5798 5800 5801 5803 5804 5805 5805 5806 5807 5807 5808 5812 5814 5816 5817 5818 5818
5773 5773 5777 5778 5777 5774 5768 5768 5766 5764 5767 5763 5763 5767 5770 5765 5766 5766 5769 5773 5770 5766 5765 5766 5772 5772 5769 5773 5783 5786 5793 5795 5795 5796 5798 5798 5800 5801 5802 5803 5803 5804 5806 5810 5812 5813 5814 5815 5815
5771 5773 5777 5776 5776 5768 5768 5766 5758 5762 5761 5761 5762 5763 5763 5762 5763 5764 5765 5769 5770 5767 5765 5767 5767 5770 5771 5777 5774 5782 5783 5787 5789 5791 5793 5794 5793 5797 5798 5798 5799 5800 5803 5806 5810 5811 5811 5812 5812
5769 5774 5774 5771 5770 5768 5765 5762 5754 5760 5761 5762 5761 5760 5760 5760 5759 5758 5760 5762 5765 5764 5763 5763 5766 5769 5769 5770 5777 5778 5783 5780 5782 5785 5786 5786 5788 5792 5793 5794 5796 5799 5803 5805 5807 5808 5809 5808 5809
5769 5769 5770 5769 5766 5764 5763 5762 5761 5761 5758 5753 5760 5759 5758 5756 5756 5753 5755 5759 5759 5760 5762 5762 5765 5765 5766 5768 5773 5775 5777 5779 5776 5777 5782 5781 5784 5785 5789 5792 5795 5798 5801 5803 5806 5805 5805 5805 5806
5768 5768 5765 5762 5760 5762 5761 5759 5759 5759 5756 5757 5758 5757 5755 5755 5753 5749 5749 5754 5755 5757 5758 5759 5761 5762 5761 5764 5768 5770 5771 5771 5773 5776 5777 5777 5778 5782 5786 5791 5795 5797 5800 5802 5802 5802 5801 5803 5803
5766 5765 5761 5758 5757 5757 5758 5757 5757 5756 5753 5753 5751 5752 5751 5750 5749 5748 5746 5748 5751 5752 5754 5756 5758 5757 5759 5763 5764 5765 5766 5771 5771 5770 5771 5772 5774 5779 5785 5790 5794 5796 5797 5797 5798 5799 5799 5800 5799
5764 5761 5759 5757 5756 5754 5754 5755 5753 5753 5751 5751 5749 5748 5747 5745 5744 5744 5744 5743 5745 5749 5750 5752 5755 5753 5754 5756 5759 5761 5764 5766 5766 5768 5769 5769 5775 5781 5787 5791 5791 5793 5793 5795 5795 5797 5796 5797 5796
5761 5761 5756 5754 5757 5756 5753 5751 5749 5748 5750 5749 5747 5745 5742 5740 5741 5742 5741 5742 5744 5746 5748 5747 5750 5751 5753 5755 5757 5758 5759 5762 5764 5765 5767 5770 5777 5782 5786 5788 5787 5788 5791 5792 5793 5792 5793 5791 5790
5759 5760 5761 5757 5755 5755 5753 5750 5740 5747 5749 5748 5745 5743 5740 5739 5737 5737 5738 5740 5741 5744 5746 5748 5750 5751 5752 5753 5753 5756 5757 5762 5765 5765 5768 5772 5777 5780 5783 5784 5784 5786 5788 5788 5788 5788 5787 5786 5785
5761 5764 5763 5760 5756 5756 5753 5751 5751 5748 5747 5746 5745 5742 5739 5739 5736 5735 5737 5739 5740 5740 5743 5745 5747 5748 5749 5751 5754 5757 5760 5762 5764 5766 5770 5774 5776 5778 5780 5779 5781 5783 5783 5782 5782 5782 5780 5780 5779
5763 5765 5762 5761 5757 5754 5753 5754 5751 5748 5745 5745 5745 5743 5741 5741 5738 5739 5738 5739 5739 5741 5745 5748 5747 5750 5752 5755 5758 5759 5760 5761 5765 5770 5772 5773 5774 5775 5776 5777 5779 5780 5779 5778 5778 5777 5776 5775 5774
5759 5762 5761 5761 5758 5754 5753 5754 5752 5748 5745 5744 5744 5742 5743 5743 5742 5741 5743 5745 5746 5747 5748 5752 5752 5754 5755 5758 5758 5759 5762 5763 5766 5769 5772 5771 5772 5773 5773 5775 5774 5775 5774 5774 5774 5772 5770 5770 5767
5756 5757 5759 5759 5756 5754 5754 5756 5752 5749 5748 5746 5747 5747 5747 5745 5746 5746 5745 5747 5748 5749 5751 5752 5753 5755 5756 5758 5759 5761 5762 5764 5766 5767 5769 5769 5769 5771 5771 5772 5770 5770 5770 5768 5767 5765 5765 5762 5759
5755 5755 5757 5756 5755 5753 5754 5754 5752 5751 5749 5747 5746 5747 5747 5747 5747 5747 5748 5749 5749 5750 5752 5754 5755 5756 5757 5759 5760 5761 5761 5763 5764 5765 5766 5766 5766 5767 5767 5767 5765 5764 5764 5762 5761 5759 5757 5753 5751
5754 5754 5754 5753 5753 5749 5754 5754 5752 5753 5751 5749 5748 5748 5748 5748 5748 5748 5749 5750 5751 5751 5752 5753 5754 5756 5757 5759 5759 5760 5760 5761 5761 5762 5762 5762 5762 5762 5762 5761 5759 5758 5757 5755 5754 5751 5748 5745 5743
5750 5752 5753 5753 5753 5754 5756 5756 5752 5752 5751 5749 5750 5748 5748 5749 5750 5750 5750 5750 5751 5752 5752 5753 5755 5756 5756 5757 5757 5757 5758 5757 5758 5758 5756 5757 5757 5756 5756 5755 5753 5751 5750 5749 5746 5742 5739 5736 5733
5748 5749 5751 5751 5751 5754 5753 5755 5753 5751 5754 5751 5750 5747 5748 5747 5748 5748 5749 5749 5750 5751 5752 5752 5753 5754 5754 5754 5754 5754 5753 5753 5753 5753 5752 5753 5753 5751 5750 5748 5745 5743 5741 5738 5737 5734 5729 5725 5721
5745 5746 5750 5750 5752 5752 5751 5752 5754 5751 5748 5748 5747 5745 5745 5746 5747 5747 5746 5746 5748 5749 5750 5751 5751 5752 5751 5751 5751 5750 5750 5750 5750 5748 5747 5747 5746 5745 5742 5740 5737 5734 5731 5730 5728 5724 5719 5715 5709
5743 5744 5748 5748 5749 5751 5749 5749 5750 5747 5746 5744 5744 5744 5744 5743 5744 5744 5744 5743 5743 5745 5747 5747 5747 5747 5747 5746 5746 5746 5745 5745 5744 5740 5742 5741 5739 5737 5734 5731 5728 5725 5722 5721 5718 5714 5709 5702 5697
5739 5739 5744 5744 5745 5746 5747 5748 5746 5744 5742 5740 5740 5741 5740 5740 5741 5741 5741 5740 5740 5740 5741 5741 5741 5741 5741 5741 5740 5740 5740 5740 5738 5736 5736 5734 5731 5728 5726 5723 5719 5715 5713 5712 5707 5701 5697 5692 5688
5732 5736 5736 5738 5740 5740 5744 5745 5747 5740 5739 5738 5737 5736 5736 5736 5737 5738 5738 5738 5737 5737 5737 5737 5736 5736 5736 5735 5735 5734 5734 5732 5732 5731 5729 5726 5724 5720 5716 5711 5709 5701 5706 5701 5696 5692 5688 5684 5678
5728 5730 5731 5736 5736 5737 5739 5743 5735 5737 5735 5733 5733 5732 5731 5731 5732 5733 5733 5733 5734 5733 5733 5733 5732 5731 5731 5730 5729 5728 5728 5727 5725 5723 5720 5718 5715 5712 5708 5704 5701 5700 5695 5690 5686 5682 5678 5672 5667
5722 5723 5725 5727 5732 5730 5730 5732 5731 5731 5730 5728 5728 5728 5727 5727 5727 5727 5728 5728 5728 5728 5727 5727 5727 5726 5725 5724 5723 5724 5721 5719 5716 5713 5711 5708 5705 5701 5699 5695 5693 5689 5686 5680 5675 5671 5664 5660 5653